Weather History for Bastrop, LA

Change the Weather History Date:

Friday, March 22, 2013

  Actual Average (KMLU) Record (KMLU)
Temperature  
Mean Temperature 50 °F 60 °F  
Max Temperature 55 °F 72 °F 89 °F (1935)
Min Temperature 45 °F 48 °F 27 °F (1986)
Degree Days  
Heating Degree Days 15 7  
Month to date heating degree days 200  
Since 1 July heating degree days 2094  
Cooling Degree Days 0 1  
Month to date cooling degree days 20  
Year to date cooling degree days 31  
Moisture  
Dew Point 45 °F    
Average Humidity 82    
Maximum Humidity 92    
Minimum Humidity 47    
Precipitation  
Precipitation 0.67 in 0.14 in 1.12 in (1930)
Month to date precipitation 3.42  
Year to date precipitation 13.06  
Snow  
Snow 0.00 in - - ()
Month to date snowfall  
Since 1 July snowfall  
Snow Depth -    
Sea Level Pressure  
Sea Level Pressure 29.83 in    
Wind  
Wind Speed 3 mph (ENE)    
Max Wind Speed 10 mph    
Max Gust Speed 20 mph    
Visibility 7 miles    
Events Rain , Thunderstorm    
T = Trace of Precipitation, MM = Missing Value Source: NWS Daily Summary

Daily Weather History Graph

Daily Weather History Graph

Search for Another Location

Airport:

Trip Planner

Search our weather history database for the weather conditions in past years. The results will help you decide how hot, cold, wet, or windy it might be!

Date:

Astronomy

Mar. 22, 2013 Rise Set
Actual Time 7:08 AM CDT 7:20 PM CDT
Civil Twilight 6:43 AM CDT 7:45 PM CDT
Nautical Twilight 6:14 AM CDT 8:14 PM CDT
Astronomical Twilight 5:45 AM CDT 8:43 PM CDT
Moon 3:01 PM CDT (3/22) 3:55 AM CDT (3/22)
Length of Visible Light 13h 01m
Length of Day
12h 12m
Waxing Gibbous, 77% of the Moon is Illuminated
Mar 22
Waxing Gibbous
Mar 27
Full
Apr 2
Last Quarter
Apr 10
New
Apr 18
First Quarter

Hourly Weather History & Observations

Time (CDT) Temp. Windchill Dew Point Humidity Pressure Visibility Wind Dir Wind Speed Gust Speed Precip Events Conditions
12:15 AM 54.0 °F - 34.0 °F 47% 29.83 in 10.0 mi Calm Calm - N/A   Overcast
12:35 AM 54.0 °F - 34.3 °F 47% 29.82 in 10.0 mi Calm Calm - N/A   Overcast
12:55 AM 54.3 °F - 34.7 °F 48% 29.82 in 10.0 mi Calm Calm - N/A   Overcast
1:15 AM 54.5 °F - 34.5 °F 47% 29.82 in 10.0 mi Calm Calm - N/A   Overcast
1:35 AM 54.5 °F - 34.9 °F 48% 29.82 in 10.0 mi Calm Calm - N/A   Overcast
1:55 AM 54.5 °F - 35.2 °F 48% 29.81 in 10.0 mi Calm Calm - N/A   Overcast
2:15 AM 54.9 °F - 35.2 °F 48% 29.80 in 10.0 mi Calm Calm - N/A   Overcast
2:35 AM 55.0 °F - 35.4 °F 48% 29.80 in 10.0 mi Calm Calm - N/A Rain Light Rain
2:55 AM 49.8 °F - 43.7 °F 79% 29.82 in 2.5 mi Calm Calm - 0.08 in Rain Heavy Rain
3:15 AM 48.4 °F - 44.2 °F 86% 29.81 in 10.0 mi Calm Calm - N/A Thunderstorm Mostly Cloudy
3:35 AM 48.6 °F - 44.4 °F 86% 29.80 in 10.0 mi Calm Calm - N/A   Light Drizzle
3:55 AM 48.6 °F - 44.6 °F 86% 29.80 in 10.0 mi ENE 4.6 mph - N/A   Overcast
4:15 AM 48.7 °F - 44.4 °F 85% 29.80 in 10.0 mi ENE 5.8 mph - N/A   Overcast
4:35 AM 48.6 °F - 44.6 °F 86% 29.80 in 4.0 mi East 4.6 mph - 0.06 in Rain Heavy Rain
4:55 AM 48.2 °F - 45.1 °F 89% 29.80 in 2.5 mi East 9.2 mph - 0.17 in   Overcast
5:15 AM 48.0 °F - 45.1 °F 90% 29.79 in 7.0 mi ENE 5.8 mph - 0.01 in   Overcast
5:35 AM 48.2 °F - 45.1 °F 89% 29.79 in 3.0 mi ENE 9.2 mph - 0.06 in Rain , Thunderstorm Light Thunderstorms and Rain
5:55 AM 48.2 °F - 45.5 °F 90% 29.81 in 2.5 mi East 6.9 mph - 0.14 in Rain Heavy Rain
6:15 AM 47.8 °F - 45.5 °F 92% 29.81 in 4.0 mi East 8.1 mph - 0.01 in Rain Rain
6:55 AM 48.0 °F - 45.5 °F 91% 29.84 in 4.0 mi Calm Calm - 0.04 in Rain Rain
7:15 AM 47.8 °F - 45.5 °F 92% 29.86 in 4.0 mi Calm Calm - 0.01 in Rain Rain
7:35 AM 47.1 °F - 44.6 °F 91% 29.88 in 7.0 mi Calm Calm - 0.02 in   Light Drizzle
7:55 AM 46.0 °F 41.9 °F 43.7 °F 92% 29.87 in 5.0 mi ENE 8.1 mph 19.6 mph 0.02 in Rain Light Rain
8:15 AM 45.5 °F 41.3 °F 42.8 °F 90% 29.88 in 7.0 mi ENE 8.1 mph - 0.01 in Rain Light Rain
8:35 AM 45.5 °F 41.3 °F 42.8 °F 90% 29.87 in 7.0 mi East 8.1 mph 17.3 mph 0.01 in   Overcast
8:55 AM 45.9 °F 41.2 °F 43.0 °F 90% 29.87 in 10.0 mi ENE 9.2 mph 16.1 mph 0.01 in   Overcast
9:15 AM 46.4 °F 42.4 °F 43.3 °F 89% 29.88 in 7.0 mi East 8.1 mph - N/A   Overcast
9:35 AM 46.4 °F 41.9 °F 43.2 °F 88% 29.87 in 10.0 mi East 9.2 mph - N/A   Overcast
9:55 AM 46.8 °F - 43.5 °F 88% 29.88 in 10.0 mi East 10.4 mph 17.3 mph N/A   Overcast
10:15 AM 46.8 °F - 43.3 °F 88% 29.88 in 10.0 mi East 10.4 mph - N/A   Overcast
10:35 AM 46.8 °F - 43.2 °F 87% 29.88 in 10.0 mi East 6.9 mph - N/A   Overcast
10:55 AM 47.5 °F - 43.9 °F 87% 29.88 in 10.0 mi Calm Calm - N/A   Overcast
11:15 AM 48.2 °F - 44.1 °F 86% 29.88 in 10.0 mi East 4.6 mph - N/A   Overcast
11:35 AM 48.4 °F - 44.6 °F 87% 29.88 in 10.0 mi East 5.8 mph - N/A   Overcast
11:55 AM 48.9 °F - 44.6 °F 85% 29.87 in 10.0 mi ESE 9.2 mph - N/A   Overcast
12:15 PM 49.8 °F - 45.1 °F 84% 29.87 in 10.0 mi Calm Calm - N/A   Overcast
12:35 PM 50.2 °F - 45.5 °F 84% 29.86 in 10.0 mi East 5.8 mph - N/A   Overcast
12:55 PM 50.5 °F - 45.9 °F 84% 29.86 in 10.0 mi Calm Calm - N/A   Overcast
1:15 PM 50.9 °F - 46.0 °F 83% 29.85 in 10.0 mi Calm Calm - N/A   Overcast
1:35 PM 51.3 °F - 46.0 °F 82% 29.84 in 10.0 mi Calm Calm - N/A   Overcast
1:55 PM 52.0 °F - 46.4 °F 81% 29.83 in 10.0 mi ENE 5.8 mph - N/A   Overcast
2:15 PM 52.7 °F - 47.1 °F 81% 29.82 in 10.0 mi East 6.9 mph - N/A   Overcast
2:35 PM 52.3 °F - 46.9 °F 82% 29.82 in 10.0 mi East 3.5 mph - N/A   Overcast
2:55 PM 52.7 °F - 47.5 °F 82% 29.81 in 10.0 mi East 5.8 mph - N/A   Overcast
3:15 PM 53.4 °F - 48.0 °F 82% 29.80 in 7.0 mi East 5.8 mph - N/A   Overcast
3:35 PM 53.8 °F - 48.4 °F 82% 29.79 in 7.0 mi Calm Calm - N/A   Overcast
3:55 PM 54.1 °F - 48.7 °F 82% 29.79 in 7.0 mi East 4.6 mph - N/A   Overcast
4:15 PM 54.5 °F - 49.1 °F 82% 29.79 in 5.0 mi East 3.5 mph - N/A   Haze
4:35 PM 54.9 °F - 49.1 °F 81% 29.79 in 7.0 mi ENE 5.8 mph - N/A   Overcast
4:55 PM 54.5 °F - 48.7 °F 81% 29.79 in 7.0 mi Calm Calm - N/A   Overcast
5:15 PM 54.1 °F - 48.7 °F 82% 29.79 in 5.0 mi Calm Calm - N/A   Haze
5:35 PM 54.3 °F - 48.7 °F 81% 29.79 in 5.0 mi Calm Calm - N/A   Haze
5:55 PM 54.5 °F - 49.1 °F 82% 29.80 in 5.0 mi Calm Calm - N/A   Haze
6:15 PM 54.1 °F - 49.3 °F 84% 29.81 in 5.0 mi Calm Calm - N/A   Haze
6:35 PM 53.6 °F - 49.5 °F 86% 29.81 in 2.5 mi Calm Calm - N/A   Overcast
6:55 PM 52.9 °F - 49.8 °F 89% 29.81 in 1.8 mi Calm Calm - N/A   Overcast
7:15 PM 52.5 °F - 49.5 °F 89% 29.81 in 2.5 mi Calm Calm - N/A   Overcast
7:35 PM 52.2 °F - 49.1 °F 89% 29.82 in 5.0 mi Calm Calm - N/A   Overcast
7:55 PM 52.2 °F - 49.1 °F 89% 29.83 in 5.0 mi Calm Calm - N/A   Overcast
8:15 PM 52.2 °F - 49.1 °F 89% 29.83 in 5.0 mi Calm Calm - N/A   Overcast
8:35 PM 51.8 °F - 48.4 °F 88% 29.84 in 5.0 mi NE 6.9 mph - N/A   Overcast
8:55 PM 51.8 °F - 48.2 °F 88% 29.84 in 5.0 mi Calm Calm - N/A   Overcast
9:15 PM 51.8 °F - 48.2 °F 88% 29.83 in 5.0 mi ENE 3.5 mph - N/A   Overcast
9:35 PM 51.8 °F - 48.2 °F 88% 29.84 in 5.0 mi NNE 3.5 mph - N/A Rain Light Rain
9:55 PM 51.1 °F - 48.2 °F 90% 29.82 in 3.0 mi Calm Calm - 0.03 in Rain Rain
10:15 PM 50.7 °F - 48.2 °F 91% 29.83 in 2.0 mi NNE 3.5 mph - 0.13 in Rain , Thunderstorm Heavy Thunderstorms and Rain
10:35 PM 50.4 °F - 47.8 °F 91% 29.88 in 4.0 mi WNW 10.4 mph - 0.16 in Rain , Thunderstorm Light Thunderstorms and Rain
10:55 PM 50.4 °F - 47.8 °F 91% 29.85 in 4.0 mi Calm Calm - 0.18 in Rain , Thunderstorm Light Thunderstorms and Rain
11:15 PM 50.4 °F - 47.8 °F 91% 29.85 in 5.0 mi Calm Calm - N/A Thunderstorm Overcast
11:35 PM 50.4 °F - 47.8 °F 91% 29.85 in 4.0 mi Calm Calm - N/A Thunderstorm Overcast
11:55 PM 50.2 °F - 47.8 °F 92% 29.84 in 4.0 mi Calm Calm - N/A Thunderstorm Overcast